Location: Peterborough
(44.3091°N, 78.3197°W)
Time: 05:51:03
(UTC-04:00)

Vanguard 3 - Pass Details

Date: 02 March 2024
Orbit: 510 x 3236 km, 33.3° (Epoch: 12 April)

Event Time Altitude Azimuth Distance (km) Brightness Sun altitude
Rises 17:08:20 0° 205° (SSW) 5,580 12.1 8.7°
Reaches altitude 10° 17:12:16 10° 195° (SSW) 4,944 11.7 8.1°
Maximum altitude 17:24:43 31° 141° (SE) 4,305 10.7 5.9°
Drops below altitude 10° 17:40:07 10° 89° (E) 6,171 11.0 3.3°
Sets 17:45:43 0° 81° (E) 7,131 11.2 2.3°
